Location: Newark
(48.5156°N, 1.8989°W)
Time: 00:02:46
(UTC+00:00)

Transit 4A - Pass Details

Date: 27 November 2019
Orbit: 870 x 975 km, 66.8° (Epoch: 14 December)

Event Time Altitude Azimuth Distance (km) Brightness Sun altitude
Exits shadow 03:07:35 20° 70° (ENE) 1,943 10.0 -43.0°
Drops below altitude 10° 03:09:52 10° 90° (E) 2,529 10.7 -42.6°
Sets 03:12:46 0° 103° (ESE) 3,458 11.5 -42.2°
